Regional Weather Roundup
Issued by NWS Charleston, SC

Current Version | Previous Version | Graphics & Text | Print | Product List | Glossary On
Versions: 1 2 3 4 5 6 7 8 9 10 11 12 13 14 15 16 17 18 19 20 21 22 23 24 25 26 27 28 29 30 31 32 33 34 35 36 37 38 39 40 41 42 43 44 45 46 47 48 49 50
000
ASUS42 KCHS 271410
RWRCHS
REGIONAL WEATHER ROUNDUP
NATIONAL WEATHER SERVICE CHARLESTON SC
900 AM EST SAT DEC 27 2014

NOTE: "FAIR" INDICATES FEW OR NO CLOUDS BELOW 12,000 FEET WITH NO
SIGNIFICANT WEATHER AND/OR OBSTRUCTIONS TO VISIBILITY.

NOT ALL STATIONS ARE QUALITY CONTROLLED BY THE NATIONAL
WEATHER SERVICE. USE DATA WITH CAUTION...ESPECIALLY
DEWPOINT OBSERVATIONS.

SCZ027-030-031-034>040-042>050-271500-
...SOUTHEAST SOUTH CAROLINA...

CITY           SKY/WX    TMP DP  RH WIND       PRES   REMARKS
N CHARLESTON   MOSUNNY   50  44  80 NE3       30.34R
WATERFRONT PRK   N/A     52 N/A N/A N6          N/A
MOUNT PLEASANT FAIR      46  46 100 CALM      30.34R
PINOPOLIS      NOT AVBL
MONCKS CORNER  FAIR      48  45  87 CALM      30.34S
SUMMERVILLE    FAIR      45  45 100 CALM      30.35S
BEAUFORT MCAS  SUNNY     48  45  89 NE3       30.34R
BEAUFORT ARPT  FAIR      48  48 100 N5        30.33R
HILTON HEAD IS SUNNY     50  50 100 N5        30.34R
WALTERBORO     SUNNY     46 N/A N/A CALM      30.35R
ALLENDALE      FAIR      45  43  93 CALM      30.34R

...SOUTHERN MIDLANDS AND PEE DEE...

CITY           SKY/WX    TMP DP  RH WIND       PRES   REMARKS
GEORGETOWN     NOT AVBL
KINGSTREE      NOT AVBL
ORANGEBURG     SUNNY     43  38  82 CALM      30.35R
BARNWELL         N/A     45  41  87 CALM      30.36R
AIKEN          FAIR      41  41 100 CALM      30.37R
MANNING        FAIR      37 N/A N/A CALM      30.34S
COLUMBIA       MOSUNNY   37  34  89 CALM      30.35R
SUMTER         SUNNY     43  39  85 W2        30.34R
FLORENCE       SUNNY     41  37  86 CALM      30.35R
MYRTLE BEACH   SUNNY     45  43  93 CALM      30.35R
N MYRTLE BEACH SUNNY     47  45  93 CALM      30.34R

$$

GAZ063-065-086>088-099>101-113>116-118-119-134>141-150-271500-
...SOUTHEAST GEORGIA...

CITY           SKY/WX    TMP DP  RH WIND       PRES   REMARKS
SAVANNAH ARPT  MOSUNNY   48  44  86 CALM      30.34R
HUNTER AAF     SUNNY     50  49  97 N5        30.31R
FORT STEWART   SUNNY     48  46  91 N3        30.32R
STATESBORO     SUNNY     44  44 100 CALM      30.34R
SYLVANIA       SUNNY     43  43 100 CALM      30.35R
CLAXTON        FAIR      43  43 100 CALM      30.34S

...CSRA...CENTRAL AND FAR SOUTHEAST GEORGIA...

CITY           SKY/WX    TMP DP  RH WIND       PRES   REMARKS
THOMSON        SUNNY     37  36  99 CALM      30.38S
AUGUSTA-BUSH   SUNNY     38  36  92 CALM      30.35R
AUGUSTA-DANIEL SUNNY     47  40  76 CALM      30.34R
SWAINSBORO     FAIR      50  50 100 E3        30.34S
VIDALIA        SUNNY     46  43  87 NE3       30.33R
EASTMAN        FAIR      41  41 100 CALM      30.36R
HAZLEHURST     FAIR      49  46  89 CALM      30.31R
ALMA           SUNNY     48  44  86 CALM      30.31R
WAYCROSS       MOSUNNY   53  51  92 CALM      30.31S
JESUP          FAIR      52  50  93 CALM      30.32R
BAXLEY         FAIR      48  45  87 CALM      30.32R
BRUNSWICK      MOSUNNY   57  52  82 NE3       30.32R
SAINT SIMONS   SUNNY     60  54  80 NE8       30.30R

$$

SCZ027-028-034-036>038-045-046-048>050-GAZ119-141-271500-
...LAKE AND SUPPLEMENTAL COASTAL OBSERVATIONS...

STATION/POSITION TIME  TEMP    WIND        PRES    WAVE   SWELL
                       AIR SEA DIR/SP/G            HT/PER HT/PER/DIR
                 (UTC) (F)     (DEG/KT/KT) (MB)    (FT/S) (FT/S/D)
UPR LAKE MARION  NOT AVBL
WINYAH BAY       1300   43     330/  2     1026.0R
LAKE MURRAY      1300   40     240/  1/  2 1026.8R
ACE BASIN NERRS  1300   43        CALM     1026.0S
FORT PULASKI     1400   51 56  340/  3/  3 1027.3R
SAPELO ISLAND    1300   49      10/  5     1026.0R

$$

ANZ835-935-AMZ111-154-330-350-352-354-370-450-454-472-271500-
...C-MAN AND BUOY OBSERVATIONS...

STATION/POSITION TIME  TEMP    WIND        PRES    WAVE   SWELL
                       AIR SEA DIR/SP/G            HT/PER HT/PER/DIR
                 (UTC) (F)     (DEG/KT/KT) (MB)    (FT/S) (FT/S/D)
BUOY 41004       1400   64 74   40/ 10/ 14 1026.2R   2/ 8   2/ 8
BUOY 41008       1400   61 59   70/  8/ 10 1025.9R   2/ 5   2/ 80/ 5
FOLLY BEACH CMAN 1300   51      20/  5/  6 1026.9R
CAPERS NEARSHORE 1300   54      60/ 10/ 10   N/A
FRIPP NEARSHORE  NOT AVBL


STATION/POSITION TIME  TEMP    WIND        PRES    WAVE   SWELL
                       AIR SEA DIR/SP/G            HT/PER HT/PER/DIR
                 (UTC) (F)     (DEG/KT/KT) (MB)    (FT/S) (FT/S/D)
5E ST. MARYS GA  1400      61                N/A     3/ 5
FRYING PAN BUOY  1400   61 69   60/  6/ 10 1027.5R   2/12   2/160/12
BUOY 41025       1400   58                 1028.0R   3/17
CAPE LOOKOUT NC  1300   51     350/  4/  5 1027.2R
BUOY 41002       1301   69 74   60/ 12/ 14 1027.0R   3/11   3/ 70/11
BUOY 41010       1400   75 76  110/  8/ 10 1024.7R   3/13   3/ 40/13
ST AUGUSTINE FL  1400   63     350/ 12/ 12 1026.0R


$$


USA.gov is the U.S. government's official web portal to all federal, state and local government web resources and services.